Location: Delia
(51.6321°N, 112.3740°W)
Time: 18:09:29
(UTC+00:00)

X-37B - Pass Details

Date: 11 December 2021
Orbit: 334 x 337 km, 45.0° (Epoch: 11 January)

Event Time Altitude Azimuth Distance (km) Brightness Sun altitude
Rises 01:49:24 0° 243° (WSW) 2,102 5.6 -21.9°
Reaches altitude 10° 01:51:41 10° 226° (SW) 1,266 3.9 -22.2°
Enters shadow 01:52:52 17° 205° (SSW) 941 2.9 -22.4°
